Погода в Южном

Россия / Омская область     54°00′24″N   74°01′17″E
В апреле 2022 года жителям России запретили посещать сайт meteo.paraplan.net по решению Генеральной прокуратуры. Аудитория сайта уменьшилась в 10 раз. Владельцы сайта не видят смысла в поддержке погодного сервера в таких условиях. Сайт будет закрыт в октябре.
темп.,
°C
ветер,
м/с
пор.,
м/с
влажн.,
%
обл.,
%
осадки,
мм/ч
давл.,
гПа
погр.,
м
3 октября, пн
пн300:00+2вюв35624 0.0 103779
03:00+1вюв346484 0.0 103671
06:000вюв3469100 0.0 103755
09:00+2вюв34630 0.0 1037169
12:00+7вюв33460 0.0 1036824
15:00+8в22392 0.0 10351237
18:00+7всв23450 0.0 103549
21:00+4в34560 0.0 103560
4 октября, вт
вт400:00+3вюв22615 0.0 103617
03:00+2ююв22645 0.0 103510
06:00+2ююз116541 0.0 103610
09:00+3ююз225830 0.0 103697
12:00+8юз334248 0.0 1036650
15:00+10зюз44345 0.0 10351006
18:00+9зюз3540100 0.0 103593
21:00+7зюз3545100 0.0 103587
5 октября, ср
ср500:00+8юз374183 0.0 1035197
03:00+7зюз494231 0.0 1034199
06:00+6з494844 0.0 1034166
09:00+7з495130 0.0 1035239
12:00+13зсз574648 0.0 1034521
15:00+16зсз67421 0.0 1033787
18:00+14зсз4848100 0.0 1033185
21:00+11з3553100 0.0 103377
6 октября, чт
чт600:00+10з4750100 0.0 1033116
03:00+9з474996 0.0 1032127
06:00+8з3747100 0.0 1031137
09:00+9з3743100 0.0 1031224
12:00+13з4529100 0.0 1030470
15:00+14зсз3425100 0.0 1029675
18:00+12з2231100 0.0 102914
21:00+10ююз0035100 0.0 102910
7 октября, пт
пт700:00+9ю2235100 0.0 102810
03:00+8ю2336100 0.0 102719
06:00+8ююв3337100 0.0 102634
09:00+9ююв4837100 0.0 1025174
12:00+14ю5830100 0.0 1023414
15:00+16ю6829100 0.0 1020706
18:00+14ююв4941100 0.0 1019175
21:00+13ююв51249100 0.0 1017224